Location: Bratsk-Energetik
(56.3300°N, 101.7600°E)
Time: 08:22:51
(UTC+08:00)

ISS - Pass Details

Date: 22 July 2018
Orbit: 402 x 408 km, 51.6° (Epoch: 17 July)

Event Time Altitude Azimuth Distance (km) Brightness Sun altitude
Rises 23:26:42 0° 240° (WSW) 2,319 0.0 -9.9°
Reaches altitude 10° 23:28:55 10° 229° (SW) 1,462 -1.2 -10.0°
Maximum altitude 23:31:50 30° 166° (SSE) 765 -3.0 -10.2°
Drops below altitude 10° 23:34:45 10° 104° (ESE) 1,468 -1.4 -10.4°
Sets 23:36:58 0° 93° (E) 2,330 -0.2 -10.5°
